Theta_e
316 311 312 309 302 296 292 295 298 298 299 302 310 306 308 308 304 299 326 333 334 341 345 348 347 345 343 342 343 345 347 347 347 346 344 341 340 340 341 341 343 345 341 339 337 338 337 337 338
312 312 309 302 296 290 291 295 296 298 302 305 306 307 307 306 319 324 328 335 338 343 345 347 345 346 343 343 344 345 345 346 346 345 343 341 339 339 341 339 342 342 340 338 337 336 336 336 336
312 308 306 297 291 290 291 295 297 300 304 302 305 309 309 310 319 327 332 337 341 342 345 344 344 346 344 343 344 344 345 346 345 346 343 341 339 338 339 338 338 341 339 338 338 338 337 336 337
307 304 300 294 292 294 295 296 298 299 301 302 306 305 311 319 324 330 336 340 340 342 344 343 345 346 345 344 344 343 344 345 343 345 343 341 340 338 339 338 339 339 340 340 339 339 338 338 337
303 300 294 292 294 295 295 298 298 298 300 302 304 303 309 323 330 334 337 339 339 341 343 344 344 344 344 344 343 343 343 344 343 344 344 343 339 337 337 336 336 340 338 337 337 336 337 336 336
300 298 292 290 293 295 298 299 299 299 300 302 304 306 312 322 330 333 337 337 340 340 343 344 338 340 342 342 343 342 342 343 343 344 344 343 340 337 336 336 335 335 335 335 336 336 335 334 333
298 295 292 291 292 295 298 298 297 297 298 301 306 304 309 319 330 334 336 338 339 340 341 343 343 339 336 338 339 340 341 341 343 344 344 341 339 338 336 336 335 335 333 333 335 335 333 333 331
297 295 291 291 291 293 297 298 299 298 298 304 308 301 303 318 330 332 335 335 337 337 338 341 341 341 340 340 332 334 337 337 339 338 336 333 333 333 331 331 332 334 334 333 332 333 331 331 329
299 292 290 292 292 294 295 297 298 300 300 301 306 304 309 324 329 330 331 331 332 334 336 339 339 339 338 337 332 331 331 332 331 331 327 327 331 329 329 327 329 332 330 330 330 330 328 326 325
296 291 292 295 294 294 295 296 298 298 298 299 302 306 318 326 328 325 325 327 328 330 332 337 338 338 336 334 334 334 334 334 333 331 330 329 328 327 326 324 327 329 329 327 326 324 320 319 320
295 292 294 294 295 296 296 295 297 297 296 299 300 303 317 322 326 325 326 328 328 331 332 335 336 337 336 334 333 332 331 331 330 328 327 326 326 326 326 326 325 326 321 321 319 315 317 317 318
294 294 294 296 297 296 295 296 295 296 299 300 300 305 316 319 323 325 326 327 328 329 331 333 335 336 336 335 332 330 328 328 327 326 325 324 324 324 323 323 322 322 320 316 314 314 314 314 313
292 293 293 295 294 293 295 294 295 295 298 297 299 307 314 321 323 327 328 327 329 328 330 332 334 334 336 334 333 329 327 326 326 324 323 323 323 322 321 320 319 317 315 313 312 312 312 311 310
293 293 292 293 293 294 292 291 293 293 295 294 297 302 309 318 322 322 323 324 326 329 330 332 333 334 334 334 333 329 328 326 324 323 323 322 322 321 320 317 316 313 313 311 311 311 310 309 308
293 291 291 292 292 292 293 291 292 293 293 293 295 297 302 310 317 321 325 325 326 328 331 332 332 333 332 333 333 331 329 325 323 323 322 321 320 320 318 316 313 311 310 308 307 307 306 306 304
290 289 286 289 293 292 291 287 290 293 291 293 293 293 294 298 310 317 321 324 324 327 328 332 332 332 332 332 333 332 327 325 324 322 322 320 319 319 317 315 313 309 307 307 307 306 305 303 303
286 283 284 287 291 292 290 288 291 293 292 293 293 293 293 294 295 300 313 319 323 325 327 329 332 331 331 332 332 332 330 325 324 322 321 320 318 318 316 314 311 307 306 306 305 304 305 302 297
283 283 283 284 288 289 288 289 291 293 292 293 293 293 294 294 296 298 297 307 317 321 326 328 330 332 331 332 331 331 330 328 324 321 321 319 319 317 316 314 308 306 304 302 303 302 301 301 298
286 284 283 285 289 288 288 288 290 292 292 292 293 294 294 295 298 297 298 298 303 313 320 325 327 331 331 330 328 327 327 327 324 322 321 319 319 317 315 313 309 306 304 303 301 297 297 296 296
285 284 283 286 289 289 286 288 290 291 292 293 294 293 294 293 294 295 295 296 296 302 312 319 325 328 330 331 330 330 329 329 327 325 321 321 319 317 315 313 309 307 304 301 300 298 295 292 294
284 284 284 285 285 285 284 284 285 288 289 290 292 292 293 293 293 293 294 295 295 295 303 313 321 326 329 331 330 329 328 326 326 324 322 321 319 317 315 313 311 309 306 302 300 300 300 295 293
283 287 286 285 284 280 283 278 283 285 287 289 291 290 291 294 294 294 296 296 295 296 295 308 315 322 326 329 329 327 326 324 326 327 325 322 321 318 317 314 312 311 308 304 303 301 301 299 296
285 287 286 285 282 281 280 280 282 283 286 288 289 292 292 294 295 295 295 296 297 299 297 297 308 316 322 327 328 327 325 326 327 327 325 322 321 321 319 316 314 310 309 308 304 301 302 300 300
288 285 284 282 280 277 280 281 280 282 286 286 289 289 291 291 293 294 295 296 297 298 304 303 303 309 316 323 326 327 325 324 321 323 324 322 320 320 320 318 316 313 309 308 305 303 301 303 302
285 283 277 276 275 276 278 278 281 286 286 286 289 290 291 292 293 293 294 294 296 297 298 306 308 310 314 318 321 325 325 324 322 320 322 319 317 317 319 318 317 313 311 310 307 304 301 300 300
283 283 278 272 273 276 280 278 282 286 288 291 292 291 292 292 292 292 293 294 295 296 297 298 302 306 311 314 315 317 318 318 317 318 320 320 319 320 318 317 318 316 313 311 308 304 302 301 300
285 282 284 277 268 274 278 281 285 287 290 290 291 291 290 291 291 292 293 293 294 295 296 297 298 298 301 305 309 311 312 312 312 312 313 313 313 311 313 313 312 312 312 310 309 306 302 301 299
286 288 281 279 271 270 276 278 280 286 288 289 289 289 289 290 290 290 291 292 293 293 294 296 297 296 297 299 300 302 303 305 305 305 306 306 306 306 306 306 307 308 307 307 307 305 303 300 299
283 282 282 282 279 274 271 277 283 285 289 289 288 289 289 289 289 290 291 291 292 293 293 293 294 294 295 296 297 298 298 299 300 300 300 301 301 300 300 301 303 304 304 303 303 303 302 300 300
285 284 284 280 276 276 277 278 287 287 291 290 289 290 290 290 290 290 290 291 291 291 291 291 291 292 293 294 295 295 295 296 296 296 297 297 297 297 297 297 297 298 301 302 301 301 301 299 298
Wind_Speed
4 4 3 5 4 5 1 3 1 4 4 3 6 5 5 2 4 2 2 8 11 14 11 12 13 12 12 12 11 9 11 12 15 17 17 16 17 16 17 17 14 17 20 18 18 18 18 19 18
3 2 5 3 5 3 3 2 6 4 4 6 5 3 1 2 0 2 8 7 14 13 11 12 13 13 13 12 11 9 10 11 13 16 16 17 16 16 16 16 14 16 17 17 17 17 19 18 18
2 4 4 5 3 4 4 4 5 2 5 3 3 1 2 1 0 8 1 14 15 13 11 11 13 14 13 12 11 10 10 11 13 15 17 17 16 16 16 15 14 14 15 16 17 18 19 19 19
3 4 4 5 3 2 1 4 4 6 1 2 3 3 1 1 1 4 11 14 15 13 12 12 13 14 13 12 11 11 10 10 11 12 16 17 17 15 15 14 13 13 17 18 18 17 18 19 19
4 3 4 4 1 2 2 3 6 5 4 3 4 4 2 0 2 8 13 12 15 13 11 12 12 13 13 12 12 11 10 10 10 10 15 16 17 15 15 14 11 14 17 16 16 16 18 17 19
4 3 5 2 2 2 1 4 5 3 2 1 2 6 2 1 5 8 11 12 12 13 11 10 11 11 12 11 11 10 10 10 10 10 15 16 17 17 14 14 12 13 14 15 16 16 16 14 17
6 4 4 5 2 1 4 5 5 5 4 4 4 5 1 2 6 8 8 10 11 12 12 9 10 10 10 10 9 9 10 10 8 9 14 14 15 16 13 11 11 13 13 14 15 15 15 14 16
5 5 4 2 4 3 5 5 1 5 6 2 2 4 3 4 10 9 8 9 10 11 10 10 9 9 8 8 9 9 9 9 8 9 11 10 10 12 11 9 10 13 13 14 13 13 15 15 15
3 6 3 6 6 3 4 5 2 1 4 3 5 3 2 7 12 9 8 8 8 8 11 9 9 9 8 8 7 8 8 8 9 9 10 9 6 9 11 7 10 12 12 12 12 12 14 15 14
5 5 9 5 5 5 6 4 7 4 1 3 3 2 4 10 13 14 13 12 10 10 11 8 9 10 9 7 8 7 6 6 6 6 7 6 7 7 7 9 8 11 10 11 11 10 10 9 6
2 6 5 4 4 4 7 2 5 7 3 9 9 6 7 10 11 14 14 14 12 11 10 9 9 9 10 8 6 4 4 4 5 7 6 6 5 5 5 5 3 5 7 5 6 5 5 7 6
4 2 5 5 4 5 6 7 4 6 6 1 6 4 7 13 15 15 15 14 14 13 12 11 11 9 10 7 7 7 5 5 5 6 8 7 5 6 5 4 5 5 5 6 4 4 6 7 7
3 3 3 3 4 4 5 3 5 7 8 4 4 6 11 12 13 11 9 8 13 14 14 13 12 11 9 9 7 7 7 6 6 6 7 6 6 6 6 5 5 5 5 5 5 5 5 6 6
4 4 3 2 2 2 2 1 1 4 2 5 5 7 7 11 13 5 7 10 13 13 15 14 13 12 11 9 10 8 7 8 7 6 7 8 6 6 6 6 6 5 5 5 5 5 6 5 5
4 5 1 1 1 1 0 6 8 5 2 2 6 6 5 9 6 13 14 14 13 12 12 17 16 13 14 12 10 7 7 8 8 8 10 9 8 8 8 7 6 6 6 8 6 6 5 5 5
5 5 3 1 4 0 3 9 4 4 5 9 7 6 7 7 11 11 9 11 9 11 13 15 14 14 13 12 9 7 7 7 8 8 9 12 11 10 9 7 7 7 6 6 6 6 5 4 4
7 3 3 5 3 3 3 7 3 3 3 5 5 5 6 7 9 11 13 13 11 13 13 14 16 17 15 12 9 9 9 8 7 8 8 13 12 12 9 7 6 8 7 6 7 5 5 6 4
6 4 3 4 2 1 3 12 9 7 5 7 7 7 8 8 16 7 10 12 13 12 13 14 13 17 17 10 8 7 6 7 7 7 8 12 10 12 9 7 9 9 7 6 6 7 4 4 6
6 5 5 2 1 2 6 8 12 8 6 9 10 10 10 12 5 6 7 7 8 9 13 15 15 16 13 11 10 9 9 8 8 8 11 12 11 12 12 8 9 9 10 10 8 4 5 4 6
5 4 4 0 2 3 4 10 11 8 8 8 8 9 10 6 9 7 6 6 7 10 14 15 17 16 17 12 11 9 9 8 8 8 10 11 12 11 10 10 10 11 8 10 12 10 5 3 8
3 7 4 3 0 2 5 8 7 6 4 5 9 5 5 9 10 8 6 5 5 8 10 13 15 16 15 16 11 6 4 3 6 8 9 11 13 14 13 12 11 12 10 11 13 15 15 9 9
5 6 5 5 3 4 2 7 7 5 10 6 6 3 3 5 4 4 6 5 4 5 6 9 10 12 12 13 12 14 11 9 8 7 7 9 13 13 14 14 12 13 10 12 13 11 10 7 8
6 7 6 3 4 1 2 1 8 3 7 7 3 5 4 5 5 6 6 6 4 5 3 4 6 7 9 12 13 13 12 10 5 6 9 10 11 13 14 14 14 12 11 12 12 12 14 11 9
11 8 8 5 3 3 6 6 6 5 8 1 4 3 5 5 5 5 5 5 5 7 6 3 4 4 6 10 12 16 17 10 5 6 8 7 7 8 12 13 13 14 12 12 11 13 13 14 13
2 7 3 3 2 7 2 2 9 7 6 3 4 4 4 4 5 6 7 8 7 9 8 6 5 3 3 5 6 10 15 13 8 5 6 6 5 5 10 13 12 10 13 13 12 12 13 13 12
7 8 8 9 6 3 2 9 8 1 2 3 3 4 5 6 5 6 6 5 6 8 8 7 7 6 5 4 4 2 2 2 3 4 4 6 7 7 5 8 9 11 11 11 10 8 10 10 12
6 7 6 9 3 4 6 7 10 2 3 4 5 5 6 6 6 6 6 6 6 8 9 8 8 8 8 6 4 4 4 4 4 4 2 2 2 2 4 4 5 5 7 9 10 8 10 10 11
9 11 4 2 5 5 5 6 8 5 7 6 6 6 5 5 6 7 4 6 5 6 5 9 9 9 7 7 6 5 5 5 4 3 1 3 3 2 2 2 3 3 4 4 7 6 7 9 8
4 4 2 5 6 7 3 9 8 10 9 12 7 7 6 5 5 4 5 5 5 6 9 9 9 9 8 7 6 6 6 5 5 4 3 3 3 2 3 3 4 4 4 4 5 6 6 9 10
2 8 8 7 9 2 3 9 2 5 14 11 9 7 5 5 5 6 6 5 7 8 9 9 8 9 7 6 7 8 6 6 6 5 4 3 3 2 4 4 4 5 6 6 8 8 7 9 10
Wind_Direction
9 15 66 43 58 62 181 200 152 136 136 155 126 149 193 164 176 200 328 174 146 147 153 145 134 134 131 128 124 119 114 107 111 110 103 97 95 93 92 88 82 90 88 88 87 88 85 83 83
20 358 47 79 90 82 256 214 175 188 143 121 114 115 141 236 120 93 124 172 152 148 145 139 134 136 136 132 129 122 118 112 109 117 111 105 99 100 94 90 87 93 93 94 94 91 89 88 87
77 38 86 95 115 165 198 197 157 110 142 133 111 95 139 207 162 169 178 148 144 146 140 140 134 137 138 135 130 122 121 120 116 125 120 112 106 106 100 93 101 99 98 94 96 93 94 94 90
68 21 44 87 179 224 209 156 146 123 274 255 125 128 269 245 160 186 146 145 141 145 141 141 139 141 140 136 132 128 130 129 124 120 126 117 111 108 103 97 93 101 95 96 93 91 96 87 86
36 60 72 83 238 277 252 129 152 137 164 174 187 183 167 107 40 138 148 149 144 145 144 145 141 142 140 140 138 134 134 126 124 123 127 124 116 109 107 105 99 97 96 96 95 96 96 88 90
47 98 70 153 251 321 346 152 147 122 145 192 129 144 186 99 128 152 151 149 148 148 146 147 141 140 143 142 139 136 132 126 131 141 133 129 126 120 114 114 113 108 104 101 100 99 99 93 93
124 85 156 150 157 29 176 157 155 158 156 239 161 135 172 185 153 149 146 140 142 151 154 147 150 147 141 140 137 134 131 131 138 137 140 136 126 120 115 115 115 113 113 105 102 105 109 98 95
109 94 106 193 168 195 171 179 114 160 217 46 190 191 168 195 146 133 133 138 150 159 162 156 151 151 148 147 138 134 131 129 107 100 105 105 112 115 112 111 120 113 109 111 109 108 109 98 92
141 68 149 194 153 201 150 170 153 281 131 226 203 166 110 131 132 130 144 154 163 172 174 163 159 158 153 151 147 136 130 115 108 106 108 107 115 112 122 123 131 122 123 118 115 110 105 94 85
92 111 207 194 185 183 178 171 171 138 202 239 251 147 97 142 154 163 175 178 178 180 182 171 164 165 158 155 153 148 140 139 134 132 130 124 126 125 126 129 126 124 114 123 113 102 97 89 90
152 163 186 208 189 146 159 177 187 139 211 222 205 187 150 166 171 176 187 190 186 185 185 178 173 169 166 162 158 154 150 147 147 146 142 134 130 128 124 125 102 118 86 76 89 102 90 99 106
113 143 163 158 149 136 161 129 196 193 214 24 234 167 158 175 186 188 193 189 186 190 192 187 182 176 173 167 168 164 161 162 160 160 153 149 143 142 133 131 130 119 112 116 125 113 110 103 97
127 164 168 101 121 97 130 192 221 242 243 255 89 160 184 187 199 199 193 182 186 194 197 193 187 185 179 171 169 164 171 174 168 163 165 161 158 155 143 141 139 128 128 135 135 129 122 114 110
153 108 108 77 85 79 181 194 127 275 312 229 200 201 201 200 201 168 188 193 193 195 197 193 190 189 184 182 175 173 170 175 171 171 175 174 166 160 156 153 149 141 145 144 144 143 135 124 123
99 95 28 97 124 4 165 290 226 236 20 244 217 241 230 227 193 209 210 207 198 202 189 197 195 192 195 191 178 177 175 169 177 179 177 176 173 172 164 162 160 155 149 141 134 125 122 123 112
74 54 112 284 154 84 132 265 291 358 193 245 249 245 241 246 228 229 217 221 198 196 191 193 197 197 197 197 185 180 174 178 182 177 178 179 179 176 171 171 172 159 154 153 150 147 134 132 141
17 164 202 317 221 122 159 261 263 40 42 283 268 257 254 262 255 233 226 223 210 203 198 194 197 201 197 196 190 188 178 183 185 181 181 186 176 177 174 170 164 163 159 162 157 156 149 156 134
168 160 225 229 220 112 188 262 280 274 276 264 277 267 263 249 253 226 224 224 218 208 206 202 196 202 200 192 187 191 185 187 176 186 188 182 185 177 174 170 161 159 158 163 165 157 144 161 154
126 127 165 229 331 200 237 267 270 280 279 262 259 258 252 252 271 215 241 234 219 215 206 206 195 200 193 190 188 189 194 183 181 190 187 184 188 186 180 173 165 171 177 172 160 130 152 161 161
129 133 202 32 20 190 347 285 269 260 249 235 247 243 252 293 291 286 270 239 216 218 211 211 205 197 200 199 197 201 193 198 187 187 188 187 186 187 187 179 182 183 179 174 175 168 153 152 186
152 154 179 161 107 58 336 295 309 299 267 281 258 269 268 266 288 304 306 285 256 230 213 213 208 202 197 200 200 190 168 130 177 189 187 191 185 185 188 193 190 190 182 195 189 186 184 184 192
173 196 148 141 94 230 18 280 295 293 299 272 309 335 355 5 358 4 6 358 340 294 232 214 201 199 197 191 197 198 199 197 202 192 187 189 190 190 196 194 194 195 199 200 202 191 197 150 209
207 128 137 94 98 64 295 23 269 333 276 261 66 46 39 26 36 30 16 7 352 358 349 214 195 189 182 186 197 207 215 221 199 181 178 186 191 195 198 196 195 197 205 214 204 191 199 199 184
151 87 56 62 96 295 214 168 266 206 221 88 168 354 350 359 52 41 23 11 16 12 28 63 167 185 180 187 193 204 216 213 174 177 186 184 185 197 204 204 203 203 203 205 200 213 212 214 215
106 105 42 0 360 228 339 180 248 244 227 225 279 329 26 53 55 44 34 22 21 25 25 37 73 80 168 178 187 203 224 223 213 171 185 167 172 198 209 201 203 201 206 211 208 205 210 211 213
199 154 157 191 197 237 48 234 250 184 91 105 78 84 81 67 58 52 39 32 35 29 31 39 48 55 56 95 116 122 152 178 171 182 176 192 199 211 190 199 211 210 210 212 202 203 211 210 220
208 217 145 103 23 59 213 283 292 175 145 112 107 85 69 60 55 50 37 42 37 47 40 39 44 48 42 42 51 75 97 129 170 180 161 163 168 170 198 199 209 205 199 202 202 209 210 209 216
184 148 86 10 143 231 258 261 231 197 193 149 146 131 104 74 51 46 34 45 42 55 58 60 59 60 48 49 45 50 52 55 59 67 1 313 319 325 304 261 248 244 234 214 208 215 210 210 215
147 185 101 118 154 171 229 254 221 198 170 165 160 144 129 117 116 89 63 42 44 56 53 54 52 53 48 45 47 48 40 49 62 59 34 336 306 291 271 261 260 249 243 223 224 227 216 216 225
213 181 162 153 221 262 144 261 334 197 154 151 150 142 138 127 112 81 59 40 50 57 54 49 43 53 44 46 51 55 42 37 41 35 20 325 290 261 238 236 229 235 233 225 230 240 226 225 227